Time,TemperatureF,DewpointF,PressureIn,WindDirection,WindDirectionDegrees,WindSpeedMPH,WindSpeedGustMPH,Humidity,HourlyPrecipIn,Conditions,Clouds,dailyrainin,SoftwareType,DateUTC
2013-03-02 11:52:00,10.0,7.0,29.96,NW,317,0.0,0.0,86,0.00,,,0.00,,2013-03-02 20:52:00,
2013-03-02 12:02:00,10.0,6.0,29.98,NW,317,0.0,1.0,82,0.00,,,0.00,,2013-03-02 21:02:00,
2013-03-02 12:11:00,10.0,6.0,29.98,NW,317,0.0,1.0,82,0.00,,,0.00,,2013-03-02 21:11:00,
2013-03-02 12:21:00,10.0,8.0,29.99,NW,317,0.0,1.0,92,0.00,,,0.00,,2013-03-02 21:21:00,
2013-03-02 12:31:00,10.0,6.0,29.99,NW,317,0.0,1.0,83,0.00,,,0.00,,2013-03-02 21:31:00,
2013-03-02 12:41:00,10.0,6.0,29.99,NW,317,0.0,1.0,83,0.00,,,0.00,,2013-03-02 21:41:00,
2013-03-02 12:52:00,10.0,6.0,30.00,East,79,0.0,2.0,83,0.00,,,0.00,,2013-03-02 21:52:00,
2013-03-02 13:01:00,11.0,7.0,30.01,East,79,0.0,2.0,84,0.00,,,0.00,,2013-03-02 22:01:00,
2013-03-02 13:11:00,11.0,7.0,30.01,East,79,0.0,2.0,84,0.00,,,0.00,,2013-03-02 22:11:00,
2013-03-02 13:21:00,11.0,7.0,30.01,East,79,0.0,2.0,84,0.00,,,0.00,,2013-03-02 22:21:00,
2013-03-02 13:32:00,13.0,9.0,30.01,East,79,1.0,2.0,83,0.00,,,0.00,,2013-03-02 22:32:00,
2013-03-02 13:42:00,13.0,9.0,30.01,East,79,1.0,2.0,83,0.00,,,0.00,,2013-03-02 22:42:00,
2013-03-02 13:51:00,13.0,9.0,30.02,East,90,2.0,3.0,82,0.00,,,0.00,,2013-03-02 22:51:00,
2013-03-02 14:01:00,14.0,9.0,30.01,ESE,107,1.0,3.0,81,0.00,,,0.00,,2013-03-02 23:01:00,
2013-03-02 14:11:00,14.0,9.0,30.01,East,97,2.0,5.0,81,0.00,,,0.00,,2013-03-02 23:11:00,
2013-03-02 14:21:00,14.0,9.0,30.01,East,97,2.0,5.0,81,0.00,,,0.00,,2013-03-02 23:21:00,
2013-03-02 14:32:00,14.0,10.0,30.01,East,97,1.0,3.0,82,0.00,,,0.00,,2013-03-02 23:32:00,
2013-03-02 14:42:00,14.0,10.0,30.01,East,97,1.0,3.0,82,0.00,,,0.00,,2013-03-02 23:42:00,
2013-03-02 14:52:00,14.0,10.0,30.01,East,97,0.0,3.0,83,0.00,,,0.00,,2013-03-02 23:52:00,
2013-03-02 15:02:00,14.0,9.0,30.01,East,97,1.0,3.0,81,0.00,,,0.00,,2013-03-03 00:02:00,
2013-03-02 15:11:00,14.0,9.0,30.01,East,97,1.0,3.0,81,0.00,,,0.00,,2013-03-03 00:11:00,
2013-03-02 15:22:00,14.0,10.0,30.00,East,97,1.0,2.0,82,0.00,,,0.00,,2013-03-03 00:22:00,
2013-03-02 15:31:00,14.0,10.0,30.00,East,97,1.0,2.0,83,0.00,,,0.00,,2013-03-03 00:31:00,
2013-03-02 15:42:00,14.0,10.0,30.00,East,97,1.0,2.0,83,0.00,,,0.00,,2013-03-03 00:42:00,
2013-03-02 15:52:00,14.0,10.0,29.99,East,97,0.0,2.0,82,0.00,,,0.00,,2013-03-03 00:52:00,
2013-03-02 16:01:00,14.0,10.0,29.99,East,96,0.0,2.0,83,0.00,,,0.00,,2013-03-03 01:01:00,
2013-03-02 16:11:00,14.0,10.0,29.99,East,96,0.0,2.0,83,0.00,,,0.00,,2013-03-03 01:11:00,
2013-03-02 16:21:00,14.0,10.0,29.99,East,97,0.0,2.0,83,0.00,,,0.00,,2013-03-03 01:21:00,
2013-03-02 16:31:00,14.0,10.0,29.99,East,97,0.0,1.0,83,0.00,,,0.00,,2013-03-03 01:31:00,
2013-03-02 16:41:00,14.0,10.0,29.99,East,97,0.0,1.0,83,0.00,,,0.00,,2013-03-03 01:41:00,
2013-03-02 16:52:00,14.0,10.0,29.99,East,96,0.0,2.0,83,0.00,,,0.00,,2013-03-03 01:52:00,
2013-03-02 17:01:00,14.0,10.0,29.99,East,96,0.0,1.0,83,0.00,,,0.00,,2013-03-03 02:01:00,
2013-03-02 17:11:00,14.0,10.0,29.99,East,96,0.0,1.0,83,0.00,,,0.00,,2013-03-03 02:11:00,
2013-03-02 17:21:00,14.0,10.0,29.99,East,97,0.0,0.0,84,0.00,,,0.00,,2013-03-03 02:21:00,
2013-03-02 17:31:00,14.0,10.0,29.99,East,97,0.0,0.0,85,0.00,,,0.00,,2013-03-03 02:31:00,
2013-03-02 17:41:00,14.0,10.0,29.99,East,97,0.0,0.0,85,0.00,,,0.00,,2013-03-03 02:41:00,
2013-03-02 17:52:00,14.0,10.0,29.99,East,97,0.0,0.0,85,0.00,,,0.00,,2013-03-03 02:52:00,